TimePDT,TemperatureF,Dew PointF,Humidity,Sea Level PressureIn,VisibilityMPH,Wind Direction,Wind SpeedMPH,Gust SpeedMPH,PrecipitationIn,Events,Conditions,WindDirDegrees,DateUTC
12:15 AM,59.0,57.2,94,29.84,8.0,Calm,Calm,-,N/A,Rain,Light Rain,0,2013-08-28 07:15:00
12:35 AM,59.0,59.0,100,29.84,6.0,Calm,Calm,-,N/A,Rain,Light Rain,0,2013-08-28 07:35:00
12:55 AM,59.0,57.2,94,29.83,7.0,Calm,Calm,-,N/A,Rain,Light Rain,0,2013-08-28 07:55:00
1:15 AM,59.0,57.2,94,29.83,7.0,Calm,Calm,-,N/A,Rain,Light Rain,0,2013-08-28 08:15:00
1:35 AM,59.0,57.2,94,29.82,8.0,Calm,Calm,-,N/A,Rain,Light Rain,0,2013-08-28 08:35:00
1:55 AM,59.0,57.2,94,29.82,9.0,Calm,Calm,-,N/A,Rain,Light Rain,0,2013-08-28 08:55:00
2:15 AM,59.0,57.2,94,29.82,9.0,Calm,Calm,-,N/A,Rain,Light Rain,0,2013-08-28 09:15:00
2:35 AM,57.2,57.2,100,29.82,8.0,Calm,Calm,-,N/A,Rain,Light Rain,0,2013-08-28 09:35:00
2:55 AM,57.2,57.2,100,29.82,7.0,Calm,Calm,-,N/A,Rain,Light Rain,0,2013-08-28 09:55:00
3:15 AM,57.2,57.2,100,29.82,7.0,Calm,Calm,-,N/A,Rain,Light Rain,0,2013-08-28 10:15:00
3:35 AM,57.2,57.2,100,29.82,8.0,Calm,Calm,-,N/A,Rain,Light Rain,0,2013-08-28 10:35:00
3:55 AM,57.2,57.2,100,29.82,10.0,Calm,Calm,-,N/A,Rain,Light Rain,0,2013-08-28 10:55:00
4:15 AM,57.2,57.2,100,29.82,10.0,Calm,Calm,-,N/A,,Overcast,0,2013-08-28 11:15:00
4:35 AM,57.2,57.2,100,29.82,7.0,Calm,Calm,-,N/A,Rain,Light Rain,0,2013-08-28 11:35:00
4:55 AM,57.2,57.2,100,29.82,7.0,Calm,Calm,-,N/A,Rain,Light Rain,0,2013-08-28 11:55:00
5:15 AM,57.2,57.2,100,29.82,5.0,Calm,Calm,-,N/A,Rain,Light Rain,0,2013-08-28 12:15:00
5:35 AM,57.2,57.2,100,29.82,4.0,Calm,Calm,-,N/A,Rain,Light Rain,0,2013-08-28 12:35:00
5:55 AM,57.2,57.2,100,29.83,6.0,Calm,Calm,-,N/A,Rain,Light Rain,0,2013-08-28 12:55:00
6:15 AM,57.2,57.2,100,29.83,7.0,Calm,Calm,-,N/A,Rain,Light Rain,0,2013-08-28 13:15:00
6:35 AM,57.2,57.2,100,29.84,8.0,Calm,Calm,-,N/A,,Mostly Cloudy,0,2013-08-28 13:35:00
6:55 AM,57.2,57.2,100,29.84,5.0,Calm,Calm,-,N/A,,Overcast,0,2013-08-28 13:55:00
7:15 AM,57.2,57.2,100,29.84,6.0,Calm,Calm,-,N/A,Rain,Light Rain,0,2013-08-28 14:15:00
7:35 AM,57.2,57.2,100,29.85,7.0,Calm,Calm,-,N/A,,Overcast,0,2013-08-28 14:35:00
7:55 AM,57.2,57.2,100,29.85,7.0,Calm,Calm,-,N/A,,Overcast,0,2013-08-28 14:55:00
8:15 AM,57.2,57.2,100,29.86,8.0,Calm,Calm,-,N/A,,Mostly Cloudy,0,2013-08-28 15:15:00
8:35 AM,57.2,57.2,100,29.86,9.0,Calm,Calm,-,N/A,,Overcast,0,2013-08-28 15:35:00
8:55 AM,57.2,57.2,100,29.86,6.0,North,3.5,-,N/A,,Overcast,350,2013-08-28 15:55:00
9:15 AM,57.2,57.2,100,29.86,8.0,Calm,Calm,-,N/A,,Mostly Cloudy,0,2013-08-28 16:15:00
9:35 AM,59.0,59.0,100,29.86,10.0,Calm,Calm,-,N/A,,Mostly Cloudy,0,2013-08-28 16:35:00
9:55 AM,57.2,57.2,100,29.87,9.0,NNW,4.6,-,N/A,,Overcast,340,2013-08-28 16:55:00
10:15 AM,59.0,57.2,94,29.87,8.0,North,4.6,-,N/A,,Overcast,350,2013-08-28 17:15:00
10:35 AM,59.0,59.0,100,29.88,10.0,Calm,Calm,-,N/A,,Mostly Cloudy,0,2013-08-28 17:35:00
10:55 AM,59.0,59.0,100,29.88,10.0,North,3.5,-,N/A,,Overcast,350,2013-08-28 17:55:00
11:15 AM,59.0,59.0,100,29.88,10.0,Calm,Calm,-,N/A,,Overcast,0,2013-08-28 18:15:00
11:35 AM,59.0,59.0,100,29.88,10.0,Calm,Calm,-,N/A,,Overcast,0,2013-08-28 18:35:00
11:55 AM,60.8,59.0,94,29.89,10.0,Calm,Calm,-,N/A,,Mostly Cloudy,0,2013-08-28 18:55:00
12:15 PM,62.6,59.0,88,29.88,10.0,Calm,Calm,-,N/A,,Mostly Cloudy,0,2013-08-28 19:15:00
12:35 PM,64.4,60.8,88,29.88,10.0,North,3.5,-,N/A,,Mostly Cloudy,360,2013-08-28 19:35:00
12:55 PM,62.6,60.8,94,29.88,10.0,Calm,Calm,-,N/A,,Scattered Clouds,0,2013-08-28 19:55:00
1:15 PM,64.4,60.8,88,29.88,10.0,Calm,Calm,-,N/A,,Partly Cloudy,0,2013-08-28 20:15:00
1:35 PM,64.4,60.8,88,29.89,10.0,North,4.6,-,N/A,,Clear,350,2013-08-28 20:35:00
1:55 PM,64.4,60.8,88,29.89,10.0,NW,3.5,-,N/A,,Partly Cloudy,320,2013-08-28 20:55:00
2:15 PM,64.4,60.8,88,29.89,10.0,NNW,5.8,-,N/A,,Clear,340,2013-08-28 21:15:00
2:35 PM,64.4,60.8,88,29.89,10.0,North,5.8,-,N/A,,Clear,360,2013-08-28 21:35:00
2:55 PM,64.4,60.8,88,29.88,10.0,Calm,Calm,-,N/A,,Clear,0,2013-08-28 21:55:00
3:15 PM,64.4,60.8,88,29.88,10.0,North,3.5,-,N/A,,Clear,360,2013-08-28 22:15:00
3:35 PM,64.4,60.8,88,29.88,10.0,Calm,Calm,-,N/A,,Clear,0,2013-08-28 22:35:00
3:55 PM,64.4,60.8,88,29.88,10.0,Calm,Calm,-,N/A,,Clear,0,2013-08-28 22:55:00
4:15 PM,66.2,60.8,83,29.88,10.0,NNW,4.6,-,N/A,,Clear,330,2013-08-28 23:15:00
4:35 PM,66.2,62.6,88,29.87,10.0,NNW,5.8,-,N/A,,Clear,340,2013-08-28 23:35:00
4:55 PM,66.2,62.6,88,29.87,10.0,NNW,4.6,-,N/A,,Clear,340,2013-08-28 23:55:00
5:15 PM,66.2,60.8,83,29.87,10.0,Calm,Calm,-,N/A,,Clear,0,2013-08-29 00:15:00
5:35 PM,66.2,60.8,83,29.87,10.0,Calm,Calm,-,N/A,,Clear,0,2013-08-29 00:35:00
5:55 PM,66.2,60.8,83,29.87,10.0,Calm,Calm,-,N/A,,Partly Cloudy,0,2013-08-29 00:55:00
6:15 PM,66.2,60.8,83,29.87,10.0,Calm,Calm,-,N/A,,Partly Cloudy,0,2013-08-29 01:15:00
6:35 PM,68.0,62.6,83,29.87,10.0,Calm,Calm,-,N/A,,Clear,0,2013-08-29 01:35:00
6:55 PM,66.2,60.8,83,29.86,10.0,Calm,Calm,-,N/A,,Clear,0,2013-08-29 01:55:00
7:15 PM,64.4,60.8,88,29.85,10.0,Calm,Calm,-,N/A,,Clear,0,2013-08-29 02:15:00
7:35 PM,64.4,60.8,88,29.86,10.0,Calm,Calm,-,N/A,,Clear,0,2013-08-29 02:35:00
7:55 PM,64.4,60.8,88,29.86,10.0,Calm,Calm,-,N/A,,Clear,0,2013-08-29 02:55:00
8:15 PM,64.4,60.8,88,29.86,10.0,Calm,Calm,-,N/A,,Clear,0,2013-08-29 03:15:00
8:35 PM,64.4,60.8,88,29.86,10.0,Calm,Calm,-,N/A,,Clear,0,2013-08-29 03:35:00
8:55 PM,64.4,62.6,94,29.87,10.0,Calm,Calm,-,N/A,,Clear,0,2013-08-29 03:55:00
9:15 PM,64.4,62.6,94,29.87,10.0,Calm,Calm,-,N/A,,Clear,0,2013-08-29 04:15:00
9:35 PM,64.4,62.6,94,29.87,10.0,Calm,Calm,-,N/A,Rain,Light Rain,0,2013-08-29 04:35:00
9:55 PM,64.4,62.6,94,29.87,10.0,Calm,Calm,-,N/A,,Clear,0,2013-08-29 04:55:00
10:15 PM,62.6,62.6,100,29.87,10.0,Calm,Calm,-,N/A,Rain,Light Rain,0,2013-08-29 05:15:00
10:35 PM,62.6,62.6,100,29.88,10.0,Calm,Calm,-,N/A,Rain,Light Rain,0,2013-08-29 05:35:00
10:55 PM,62.6,60.8,94,29.88,10.0,Calm,Calm,-,N/A,Rain,Light Rain,0,2013-08-29 05:55:00
11:15 PM,60.8,59.0,94,29.88,9.0,Calm,Calm,-,N/A,Rain,Light Rain,0,2013-08-29 06:15:00
11:35 PM,60.8,60.8,100,29.87,10.0,Calm,Calm,-,N/A,,Clear,0,2013-08-29 06:35:00
11:55 PM,59.0,59.0,100,29.86,8.0,Calm,Calm,-,N/A,Rain,Light Rain,0,2013-08-29 06:55:00